Simultaneous Nadir Overpasses (SNOs) Predictions

Prediction of SNOs between METOP-A and NOAA-19 Satellite Orbit:

Table of predicted SNOs for the next 14.0 days since TLE Epoch: 7/29/2016
Index Date (METOP-A) Time (METOP-A) Lat,Lon (METOP-A) SZA (METOP-A ) Date (NOAA-19) Time (NOAA-19) Lat,Lon (NOAA-19) SZA (NOAA-19 ) Distance(km) Time Diff (sec)
1 08/02/2016 03:00:29 -76.40, -43.90 121.34 08/02/2016 02:59:15 -76.43, -44.66 121.31 19.96 74
2 08/02/2016 03:51:11 76.29, 123.02 58.55 08/02/2016 03:50:15 76.31, 123.03 58.58 2.97 56
3 08/02/2016 04:41:53 -76.29, -69.64 121.44 08/02/2016 04:41:14 -76.30, -69.66 121.43 0.80 39
4 08/02/2016 05:32:33 76.27, 97.60 58.55 08/02/2016 05:32:16 76.27, 97.68 58.56 2.13 17
5 08/02/2016 06:23:15 -76.27, -95.05 121.44 08/02/2016 06:23:15 -76.25, -95.00 121.46 2.47 0
6 08/02/2016 07:13:55 76.25, 72.19 58.55 08/02/2016 07:14:18 76.27, 72.18 58.58 2.74 23
7 08/02/2016 08:04:37 -76.25,-120.46 121.44 08/02/2016 08:05:17 -76.25,-120.51 121.44 1.16 40
8 08/02/2016 08:55:17 76.23, 46.78 58.55 08/02/2016 08:56:19 76.23, 46.83 58.55 1.36 62
9 08/02/2016 09:46:03 -76.05,-146.51 121.62 08/02/2016 09:47:15 -76.08,-145.36 121.60 30.89 72




NCC Satellite Simultaneous Nadir Overpasses (SNOs) Prediction Service
